Gillette, WY

8:49 AM MDT on October 24, 2014 (GMT -0600)
RAWS ECHETA WY US | Change Station
CLOSE
Current Station
Personal Weather Station
Location: Gillette, WY
Elevation: 4396 ft
Nearby Weather Stations

Elev 4396 ft 44.47 °N, 105.84 °W | Updated 58 minutes ago

Clear
Clear
52 °F
Feels Like 52 °F
N
5
Wind Variable Wind from SSE
Gusts 9.0 mph

Today
High -- | Low -- °F
--% Chance of Precip.
Yesterday
High -- | Low -- °F
Precip. -- in
7:29 AM 6:03 PM
New Moon, 1% visible
Pressure 29.98 in
Visibility 10.0 miles
Clouds Clear
Dew Point 23 °F
Humidity 32%
Rainfall 0.00 in
Snow Depth Not available.
UV 0 out of 12
Pollen 1.60 out of 12
Air Quality Not available.
Flu Activity Sporadic
METAR KGCC 241353Z AUTO 23004KT 10SM CLR 11/M04 A3002 RMK AO2 SLP152 T01061039

More Conditions Fewer Conditions

Pressure 29.98 in
Visibility 10.0 miles
Clouds Clear
Dew Point 23 °F
Humidity 32%
Rainfall 0.00 in
Snow Depth Not available.
UV 0 out of 12
Pollen 1.60 out of 12
Air Quality Not available.
Flu Activity Sporadic
METAR KGCC 241353Z AUTO 23004KT 10SM CLR 11/M04 A3002 RMK AO2 SLP152 T01061039

More Conditions Fewer Conditions

10-Day Weather Forecast

Almanac

Astronomy

Oct. 24, 2014 Rise Set
Actual Time 7:29 AM MDT 6:03 PM MDT
Civil Twilight 6:59 AM MDT 6:33 PM MDT
Nautical Twilight 6:25 AM MDT 7:07 PM MDT
Astronomical Twilight 5:52 AM MDT 7:40 PM MDT
Moon 8:12 AM MDT 6:43 PM MDT
Length of Visible Light 11h 33m
Length of Day
10h 33m
Tomorrow will be 2m 53s shorter.
New Moon, 1% of the Moon is Illuminated
Today
New Moon
Oct 30
First Quarter
Nov 6
Full
Nov 14
Last Quarter
Nov 22
New

Today's Extremes

State Highs State Lows

Community

WunderPhotos

Upload Photos

1,764,581 photos uploaded!

Nearby

Snow Depth

Station Depth Elevation
Casper Mountain 0 in 7850 ft
Reno Hill 0 in 8500 ft
Laprele Creek 0 in 8375 ft
Windy Peak 0 in 7900 ft
Sand Lake 4 in 10050 ft

Earthquake Activity

City Distance Mag. Time & Date
No recent earthquake activity has been reported nearby.
Minimum magnitude displayed is 2.5.

Coastal Water Temperatures

Place Temperature
No Stations Reporting

Nearby Weather Stations